owner,sensor,date,latitude,longitude,relative_humidity,qcFlag 
COMPS,ioos:station:USF.COMPS:C10:1,2019-09-01T00:35:00,27.1690,-82.9260,78.11,11111222 
COMPS,ioos:station:USF.COMPS:C10:1,2019-09-01T01:35:00,27.1690,-82.9260,81.1,11111222 
COMPS,ioos:station:USF.COMPS:C10:1,2019-09-01T02:35:00,27.1690,-82.9260,77.87,11111222 
COMPS,ioos:station:USF.COMPS:C10:1,2019-09-01T04:35:00,27.1690,-82.9260,82.91,11111222 
COMPS,ioos:station:USF.COMPS:C10:1,2019-09-01T05:35:00,27.1690,-82.9260,84.01,11111222 
COMPS,ioos:station:USF.COMPS:C10:1,2019-09-01T08:35:00,27.1690,-82.9260,87.09,11111222 
COMPS,ioos:station:USF.COMPS:C10:1,2019-09-01T09:35:00,27.1690,-82.9260,86.2,11111222 
COMPS,ioos:station:USF.COMPS:C10:1,2019-09-01T13:35:00,27.1690,-82.9260,88.52,11111222 
COMPS,ioos:station:USF.COMPS:C10:1,2019-09-01T14:35:00,27.1690,-82.9260,87.22,11111222 
COMPS,ioos:station:USF.COMPS:C10:1,2019-09-01T15:35:00,27.1690,-82.9260,85.07,11111222 
COMPS,ioos:station:USF.COMPS:C10:1,2019-09-01T16:35:00,27.1690,-82.9260,82.37,11111222 
COMPS,ioos:station:USF.COMPS:C10:1,2019-09-01T17:35:00,27.1690,-82.9260,79.27,11111222 
COMPS,ioos:station:USF.COMPS:C10:1,2019-09-01T18:35:00,27.1690,-82.9260,77.0,11111222 
COMPS,ioos:station:USF.COMPS:C10:1,2019-09-01T19:35:00,27.1690,-82.9260,79.13,11111222 
COMPS,ioos:station:USF.COMPS:C10:1,2019-09-01T20:35:00,27.1690,-82.9260,78.5,11111222 
COMPS,ioos:station:USF.COMPS:C10:1,2019-09-01T21:35:00,27.1690,-82.9260,83.26,11111222 
COMPS,ioos:station:USF.COMPS:C10:1,2019-09-01T22:35:00,27.1690,-82.9260,87.99,11111222 
COMPS,ioos:station:USF.COMPS:C10:1,2019-09-02T03:35:00,27.1690,-82.9260,81.53,11111222 
COMPS,ioos:station:USF.COMPS:C10:1,2019-09-02T08:35:00,27.1690,-82.9260,83.85,11111222 
COMPS,ioos:station:USF.COMPS:C10:1,2019-09-02T12:35:00,27.1690,-82.9260,84.61,11111222 
COMPS,ioos:station:USF.COMPS:C10:1,2019-09-02T15:35:00,27.1690,-82.9260,84.95,11111222 
COMPS,ioos:station:USF.COMPS:C10:1,2019-09-02T16:35:00,27.1690,-82.9260,84.11,11111222 
COMPS,ioos:station:USF.COMPS:C10:1,2019-09-02T17:35:00,27.1690,-82.9260,83.87,11111222 
COMPS,ioos:station:USF.COMPS:C10:1,2019-09-02T19:35:00,27.1690,-82.9260,84.38,11111222 
COMPS,ioos:station:USF.COMPS:C10:1,2019-09-02T20:35:00,27.1690,-82.9260,78.32,11111222 
COMPS,ioos:station:USF.COMPS:C10:1,2019-09-02T21:35:00,27.1690,-82.9260,82.12,11111222 
COMPS,ioos:station:USF.COMPS:C10:1,2019-09-02T23:35:00,27.1690,-82.9260,82.95,11111222 
COMPS,ioos:station:USF.COMPS:C10:1,2019-09-03T01:35:00,27.1690,-82.9260,77.62,11111222 
COMPS,ioos:station:USF.COMPS:C10:1,2019-09-03T03:35:00,27.1690,-82.9260,78.12,11111222 
COMPS,ioos:station:USF.COMPS:C10:1,2019-09-03T04:35:00,27.1690,-82.9260,80.29,11111222 
COMPS,ioos:station:USF.COMPS:C10:1,2019-09-03T06:35:00,27.1690,-82.9260,83.03,11111222 
COMPS,ioos:station:USF.COMPS:C10:1,2019-09-03T08:35:00,27.1690,-82.9260,85.35,11111222 
COMPS,ioos:station:USF.COMPS:C10:1,2019-09-03T12:35:00,27.1690,-82.9260,83.89,11111222 
COMPS,ioos:station:USF.COMPS:C10:1,2019-09-03T13:35:00,27.1690,-82.9260,83.63,11111222 
COMPS,ioos:station:USF.COMPS:C10:1,2019-09-03T14:35:00,27.1690,-82.9260,84.45,11111222 
COMPS,ioos:station:USF.COMPS:C10:1,2019-09-03T15:35:00,27.1690,-82.9260,82.99,11111222 
COMPS,ioos:station:USF.COMPS:C10:1,2019-09-03T17:35:00,27.1690,-82.9260,82.65,11111222 
COMPS,ioos:station:USF.COMPS:C10:1,2019-09-03T18:35:00,27.1690,-82.9260,84.02,11111222 
COMPS,ioos:station:USF.COMPS:C10:1,2019-09-03T19:35:00,27.1690,-82.9260,79.52,11111222 
COMPS,ioos:station:USF.COMPS:C10:1,2019-09-03T20:35:00,27.1690,-82.9260,82.89,11111222 
COMPS,ioos:station:USF.COMPS:C10:1,2019-09-03T21:35:00,27.1690,-82.9260,81.64,11111222 
COMPS,ioos:station:USF.COMPS:C10:1,2019-09-03T22:35:00,27.1690,-82.9260,77.89,11111222 
COMPS,ioos:station:USF.COMPS:C10:1,2019-09-03T23:35:00,27.1690,-82.9260,78.62,11111222 
COMPS,ioos:station:USF.COMPS:C10:1,2019-09-04T00:35:00,27.1690,-82.9260,77.2,11111222 
COMPS,ioos:station:USF.COMPS:C10:1,2019-09-04T02:35:00,27.1690,-82.9260,77.03,11111222 
COMPS,ioos:station:USF.COMPS:C10:1,2019-09-04T03:35:00,27.1690,-82.9260,80.34,11111222 
COMPS,ioos:station:USF.COMPS:C10:1,2019-09-04T04:35:00,27.1690,-82.9260,80.93,11111222 
COMPS,ioos:station:USF.COMPS:C10:1,2019-09-04T05:35:00,27.1690,-82.9260,75.26,11111222 
COMPS,ioos:station:USF.COMPS:C10:1,2019-09-04T06:35:00,27.1690,-82.9260,77.48,11111222 
COMPS,ioos:station:USF.COMPS:C10:1,2019-09-04T07:35:00,27.1690,-82.9260,78.36,11111222 
COMPS,ioos:station:USF.COMPS:C10:1,2019-09-04T08:35:00,27.1690,-82.9260,78.22,11111222 
COMPS,ioos:station:USF.COMPS:C10:1,2019-09-04T09:35:00,27.1690,-82.9260,78.66,11111222 
COMPS,ioos:station:USF.COMPS:C10:1,2019-09-04T10:35:00,27.1690,-82.9260,78.56,11111222 
COMPS,ioos:station:USF.COMPS:C10:1,2019-09-04T11:35:00,27.1690,-82.9260,78.43,11111222 
COMPS,ioos:station:USF.COMPS:C10:1,2019-09-04T12:35:00,27.1690,-82.9260,76.04,11111222 
COMPS,ioos:station:USF.COMPS:C10:1,2019-09-04T13:35:00,27.1690,-82.9260,75.08,11111222 
COMPS,ioos:station:USF.COMPS:C10:1,2019-09-04T14:35:00,27.1690,-82.9260,76.49,11111222 
COMPS,ioos:station:USF.COMPS:C10:1,2019-09-04T15:35:00,27.1690,-82.9260,77.04,11111222 
COMPS,ioos:station:USF.COMPS:C10:1,2019-09-04T16:35:00,27.1690,-82.9260,76.45,11111222 
COMPS,ioos:station:USF.COMPS:C10:1,2019-09-04T17:35:00,27.1690,-82.9260,76.97,11111222 
COMPS,ioos:station:USF.COMPS:C10:1,2019-09-04T18:35:00,27.1690,-82.9260,76.6,11111222 
COMPS,ioos:station:USF.COMPS:C10:1,2019-09-04T19:35:00,27.1690,-82.9260,78.07,11111222 
COMPS,ioos:station:USF.COMPS:C10:1,2019-09-04T20:35:00,27.1690,-82.9260,77.23,11111222 
COMPS,ioos:station:USF.COMPS:C10:1,2019-09-04T21:35:00,27.1690,-82.9260,76.9,11111222 
COMPS,ioos:station:USF.COMPS:C10:1,2019-09-04T22:35:00,27.1690,-82.9260,78.27,11111222 
COMPS,ioos:station:USF.COMPS:C10:1,2019-09-04T23:35:00,27.1690,-82.9260,78.61,11111222 
COMPS,ioos:station:USF.COMPS:C10:1,2019-09-05T00:35:00,27.1690,-82.9260,78.17,11111222 
COMPS,ioos:station:USF.COMPS:C10:1,2019-09-05T01:35:00,27.1690,-82.9260,76.91,11111222 
COMPS,ioos:station:USF.COMPS:C10:1,2019-09-05T02:35:00,27.1690,-82.9260,76.9,11111222 
COMPS,ioos:station:USF.COMPS:C10:1,2019-09-05T03:35:00,27.1690,-82.9260,77.38,11111222 
COMPS,ioos:station:USF.COMPS:C10:1,2019-09-05T04:35:00,27.1690,-82.9260,77.54,11111222 
COMPS,ioos:station:USF.COMPS:C10:1,2019-09-05T05:35:00,27.1690,-82.9260,79.76,11111222 
COMPS,ioos:station:USF.COMPS:C10:1,2019-09-05T06:35:00,27.1690,-82.9260,79.76,11111222 
COMPS,ioos:station:USF.COMPS:C10:1,2019-09-05T07:35:00,27.1690,-82.9260,80.41,11111222 
COMPS,ioos:station:USF.COMPS:C10:1,2019-09-05T08:35:00,27.1690,-82.9260,82.32,11111222 
COMPS,ioos:station:USF.COMPS:C10:1,2019-09-05T09:35:00,27.1690,-82.9260,82.98,11111222 
COMPS,ioos:station:USF.COMPS:C10:1,2019-09-05T10:35:00,27.1690,-82.9260,83.55,11111222 
COMPS,ioos:station:USF.COMPS:C10:1,2019-09-05T11:35:00,27.1690,-82.9260,84.28,11111222 
COMPS,ioos:station:USF.COMPS:C10:1,2019-09-05T12:35:00,27.1690,-82.9260,83.81,11111222 
COMPS,ioos:station:USF.COMPS:C10:1,2019-09-05T13:35:00,27.1690,-82.9260,83.28,11111222 
COMPS,ioos:station:USF.COMPS:C10:1,2019-09-05T14:35:00,27.1690,-82.9260,84.75,11111222 
COMPS,ioos:station:USF.COMPS:C10:1,2019-09-05T15:35:00,27.1690,-82.9260,85.27,11111222 
COMPS,ioos:station:USF.COMPS:C10:1,2019-09-05T16:35:00,27.1690,-82.9260,86.6,11111222 
COMPS,ioos:station:USF.COMPS:C10:1,2019-09-05T17:35:00,27.1690,-82.9260,86.36,11111222 
COMPS,ioos:station:USF.COMPS:C10:1,2019-09-05T18:35:00,27.1690,-82.9260,86.81,11111222 
COMPS,ioos:station:USF.COMPS:C10:1,2019-09-05T19:35:00,27.1690,-82.9260,86.92,11111222 
COMPS,ioos:station:USF.COMPS:C10:1,2019-09-05T20:35:00,27.1690,-82.9260,87.57,11111222 
COMPS,ioos:station:USF.COMPS:C10:1,2019-09-05T21:35:00,27.1690,-82.9260,87.71,11111222 
COMPS,ioos:station:USF.COMPS:C10:1,2019-09-05T22:35:00,27.1690,-82.9260,87.91,11111222 
COMPS,ioos:station:USF.COMPS:C10:1,2019-09-05T23:35:00,27.1690,-82.9260,88.09,11111222 
COMPS,ioos:station:USF.COMPS:C10:1,2019-09-06T00:35:00,27.1690,-82.9260,88.71,11111222 
COMPS,ioos:station:USF.COMPS:C10:1,2019-09-06T01:35:00,27.1690,-82.9260,89.45,11111222 
COMPS,ioos:station:USF.COMPS:C10:1,2019-09-06T02:35:00,27.1690,-82.9260,88.65,11111222 
COMPS,ioos:station:USF.COMPS:C10:1,2019-09-06T03:35:00,27.1690,-82.9260,86.68,11111222 
COMPS,ioos:station:USF.COMPS:C10:1,2019-09-06T04:35:00,27.1690,-82.9260,86.12,11111222 
COMPS,ioos:station:USF.COMPS:C10:1,2019-09-06T06:35:00,27.1690,-82.9260,80.95,11111222 
COMPS,ioos:station:USF.COMPS:C10:1,2019-09-06T07:35:00,27.1690,-82.9260,79.6,11111222 
COMPS,ioos:station:USF.COMPS:C10:1,2019-09-06T08:35:00,27.1690,-82.9260,79.39,11111222 
COMPS,ioos:station:USF.COMPS:C10:1,2019-09-06T09:35:00,27.1690,-82.9260,80.62,11111222 
COMPS,ioos:station:USF.COMPS:C10:1,2019-09-06T10:35:00,27.1690,-82.9260,81.91,11111222 
COMPS,ioos:station:USF.COMPS:C10:1,2019-09-06T11:35:00,27.1690,-82.9260,82.42,11111222 
COMPS,ioos:station:USF.COMPS:C10:1,2019-09-06T12:35:00,27.1690,-82.9260,82.68,11111222 
COMPS,ioos:station:USF.COMPS:C10:1,2019-09-06T13:35:00,27.1690,-82.9260,83.37,11111222 
COMPS,ioos:station:USF.COMPS:C10:1,2019-09-06T14:35:00,27.1690,-82.9260,83.05,11111222 
COMPS,ioos:station:USF.COMPS:C10:1,2019-09-06T15:35:00,27.1690,-82.9260,83.57,11111222 
COMPS,ioos:station:USF.COMPS:C10:1,2019-09-06T16:35:00,27.1690,-82.9260,84.31,11111222 
COMPS,ioos:station:USF.COMPS:C10:1,2019-09-06T17:35:00,27.1690,-82.9260,84.07,11111222 
COMPS,ioos:station:USF.COMPS:C10:1,2019-09-06T18:35:00,27.1690,-82.9260,85.18,11111222 
COMPS,ioos:station:USF.COMPS:C10:1,2019-09-06T19:35:00,27.1690,-82.9260,84.92,11111222 
COMPS,ioos:station:USF.COMPS:C10:1,2019-09-06T20:35:00,27.1690,-82.9260,85.7,11111222 
COMPS,ioos:station:USF.COMPS:C10:1,2019-09-06T21:35:00,27.1690,-82.9260,86.06,11111222 
COMPS,ioos:station:USF.COMPS:C10:1,2019-09-06T22:35:00,27.1690,-82.9260,86.52,11111222 
COMPS,ioos:station:USF.COMPS:C10:1,2019-09-06T23:35:00,27.1690,-82.9260,86.92,11111222 
COMPS,ioos:station:USF.COMPS:C10:1,2019-09-07T00:35:00,27.1690,-82.9260,85.05,11111222 
COMPS,ioos:station:USF.COMPS:C10:1,2019-09-07T01:35:00,27.1690,-82.9260,76.86,11111222 
COMPS,ioos:station:USF.COMPS:C10:1,2019-09-07T02:35:00,27.1690,-82.9260,77.25,11111222 
COMPS,ioos:station:USF.COMPS:C10:1,2019-09-07T03:35:00,27.1690,-82.9260,73.8,11111222 
COMPS,ioos:station:USF.COMPS:C10:1,2019-09-07T04:35:00,27.1690,-82.9260,72.25,11111222 
COMPS,ioos:station:USF.COMPS:C10:1,2019-09-07T05:35:00,27.1690,-82.9260,70.47,11111222 
COMPS,ioos:station:USF.COMPS:C10:1,2019-09-07T06:35:00,27.1690,-82.9260,74.57,11111222 
COMPS,ioos:station:USF.COMPS:C10:1,2019-09-07T07:35:00,27.1690,-82.9260,72.94,11111222 
COMPS,ioos:station:USF.COMPS:C10:1,2019-09-07T08:35:00,27.1690,-82.9260,69.01,11111222 
COMPS,ioos:station:USF.COMPS:C10:1,2019-09-07T09:35:00,27.1690,-82.9260,61.84,11111222 
COMPS,ioos:station:USF.COMPS:C10:1,2019-09-07T10:35:00,27.1690,-82.9260,63.83,11111222 
COMPS,ioos:station:USF.COMPS:C10:1,2019-09-07T11:35:00,27.1690,-82.9260,63.85,11111222 
COMPS,ioos:station:USF.COMPS:C10:1,2019-09-07T12:35:00,27.1690,-82.9260,61.74,11111222 
COMPS,ioos:station:USF.COMPS:C10:1,2019-09-07T13:35:00,27.1690,-82.9260,59.51,11111222 
COMPS,ioos:station:USF.COMPS:C10:1,2019-09-07T14:35:00,27.1690,-82.9260,58.81,11111222 
COMPS,ioos:station:USF.COMPS:C10:1,2019-09-07T15:35:00,27.1690,-82.9260,60.65,11111222 
COMPS,ioos:station:USF.COMPS:C10:1,2019-09-07T16:35:00,27.1690,-82.9260,62.69,11111222 
COMPS,ioos:station:USF.COMPS:C10:1,2019-09-07T17:35:00,27.1690,-82.9260,62.69,11111222 
COMPS,ioos:station:USF.COMPS:C10:1,2019-09-07T18:35:00,27.1690,-82.9260,63.52,11111222 
COMPS,ioos:station:USF.COMPS:C10:1,2019-09-07T19:35:00,27.1690,-82.9260,59.91,11111222 
COMPS,ioos:station:USF.COMPS:C10:1,2019-09-07T20:35:00,27.1690,-82.9260,58.13,11111222 
COMPS,ioos:station:USF.COMPS:C10:1,2019-09-07T22:35:00,27.1690,-82.9260,64.55,11111222 
COMPS,ioos:station:USF.COMPS:C10:1,2019-09-07T23:35:00,27.1690,-82.9260,66.42,11111222 
COMPS,ioos:station:USF.COMPS:C10:1,2019-09-08T01:35:00,27.1690,-82.9260,67.94,11111222 
COMPS,ioos:station:USF.COMPS:C10:1,2019-09-08T02:35:00,27.1690,-82.9260,68.68,11111222 
COMPS,ioos:station:USF.COMPS:C10:1,2019-09-08T03:35:00,27.1690,-82.9260,70.15,11111222 
COMPS,ioos:station:USF.COMPS:C10:1,2019-09-08T04:35:00,27.1690,-82.9260,71.43,11111222 
COMPS,ioos:station:USF.COMPS:C10:1,2019-09-08T05:35:00,27.1690,-82.9260,70.76,11111222 
COMPS,ioos:station:USF.COMPS:C10:1,2019-09-08T06:35:00,27.1690,-82.9260,69.17,11111222 
COMPS,ioos:station:USF.COMPS:C10:1,2019-09-08T07:35:00,27.1690,-82.9260,65.17,11111222 
COMPS,ioos:station:USF.COMPS:C10:1,2019-09-08T08:35:00,27.1690,-82.9260,64.62,11111222 
COMPS,ioos:station:USF.COMPS:C10:1,2019-09-08T09:35:00,27.1690,-82.9260,66.38,11111222 
COMPS,ioos:station:USF.COMPS:C10:1,2019-09-08T10:35:00,27.1690,-82.9260,66.91,11111222 
COMPS,ioos:station:USF.COMPS:C10:1,2019-09-08T11:35:00,27.1690,-82.9260,66.76,11111222 
COMPS,ioos:station:USF.COMPS:C10:1,2019-09-08T12:35:00,27.1690,-82.9260,70.23,11111222 
COMPS,ioos:station:USF.COMPS:C10:1,2019-09-08T13:35:00,27.1690,-82.9260,69.08,11111222 
COMPS,ioos:station:USF.COMPS:C10:1,2019-09-08T14:35:00,27.1690,-82.9260,68.73,11111222 
COMPS,ioos:station:USF.COMPS:C10:1,2019-09-08T15:35:00,27.1690,-82.9260,68.07,11111222 
COMPS,ioos:station:USF.COMPS:C10:1,2019-09-08T16:35:00,27.1690,-82.9260,66.23,11111222 
COMPS,ioos:station:USF.COMPS:C10:1,2019-09-08T17:35:00,27.1690,-82.9260,63.35,11111222 
COMPS,ioos:station:USF.COMPS:C10:1,2019-09-08T18:35:00,27.1690,-82.9260,65.36,11111222 
COMPS,ioos:station:USF.COMPS:C10:1,2019-09-08T19:35:00,27.1690,-82.9260,65.06,11111222 
COMPS,ioos:station:USF.COMPS:C10:1,2019-09-08T20:35:00,27.1690,-82.9260,63.9,11111222 
COMPS,ioos:station:USF.COMPS:C10:1,2019-09-08T21:35:00,27.1690,-82.9260,63.77,11111222 
COMPS,ioos:station:USF.COMPS:C10:1,2019-09-08T22:35:00,27.1690,-82.9260,65.77,11111222 
COMPS,ioos:station:USF.COMPS:C10:1,2019-09-08T23:35:00,27.1690,-82.9260,67.23,11111222 
COMPS,ioos:station:USF.COMPS:C10:1,2019-09-09T00:35:00,27.1690,-82.9260,68.23,11111222 
COMPS,ioos:station:USF.COMPS:C10:1,2019-09-09T01:35:00,27.1690,-82.9260,69.11,11111222 
COMPS,ioos:station:USF.COMPS:C10:1,2019-09-09T02:35:00,27.1690,-82.9260,68.18,11111222 
COMPS,ioos:station:USF.COMPS:C10:1,2019-09-09T03:35:00,27.1690,-82.9260,68.71,11111222 
COMPS,ioos:station:USF.COMPS:C10:1,2019-09-09T04:35:00,27.1690,-82.9260,70.75,11111222 
COMPS,ioos:station:USF.COMPS:C10:1,2019-09-09T05:35:00,27.1690,-82.9260,70.73,11111222 
COMPS,ioos:station:USF.COMPS:C10:1,2019-09-09T06:35:00,27.1690,-82.9260,70.67,11111222 
COMPS,ioos:station:USF.COMPS:C10:1,2019-09-09T07:35:00,27.1690,-82.9260,69.45,11111222 
COMPS,ioos:station:USF.COMPS:C10:1,2019-09-09T08:35:00,27.1690,-82.9260,70.72,11111222 
COMPS,ioos:station:USF.COMPS:C10:1,2019-09-09T09:35:00,27.1690,-82.9260,75.42,11111222 
COMPS,ioos:station:USF.COMPS:C10:1,2019-09-09T10:35:00,27.1690,-82.9260,77.59,11111222 
COMPS,ioos:station:USF.COMPS:C10:1,2019-09-09T12:35:00,27.1690,-82.9260,74.23,11111222 
COMPS,ioos:station:USF.COMPS:C10:1,2019-09-09T13:35:00,27.1690,-82.9260,72.79,11111222 
COMPS,ioos:station:USF.COMPS:C10:1,2019-09-09T14:35:00,27.1690,-82.9260,75.76,11111222 
COMPS,ioos:station:USF.COMPS:C10:1,2019-09-09T15:35:00,27.1690,-82.9260,74.4,11111222 
COMPS,ioos:station:USF.COMPS:C10:1,2019-09-09T16:35:00,27.1690,-82.9260,76.91,11111222 
COMPS,ioos:station:USF.COMPS:C10:1,2019-09-09T17:35:00,27.1690,-82.9260,77.72,11111222 
COMPS,ioos:station:USF.COMPS:C10:1,2019-09-09T21:35:00,27.1690,-82.9260,70.14,11111222 
COMPS,ioos:station:USF.COMPS:C10:1,2019-09-09T22:35:00,27.1690,-82.9260,66.35,11111222 
COMPS,ioos:station:USF.COMPS:C10:1,2019-09-09T23:35:00,27.1690,-82.9260,65.17,11111222 
COMPS,ioos:station:USF.COMPS:C10:1,2019-09-10T00:35:00,27.1690,-82.9260,69.0,11111222 
COMPS,ioos:station:USF.COMPS:C10:1,2019-09-10T01:35:00,27.1690,-82.9260,74.36,11111222 
COMPS,ioos:station:USF.COMPS:C10:1,2019-09-10T03:35:00,27.1690,-82.9260,88.25,11111222 
COMPS,ioos:station:USF.COMPS:C10:1,2019-09-10T04:35:00,27.1690,-82.9260,82.88,11111222 
COMPS,ioos:station:USF.COMPS:C10:1,2019-09-10T05:35:00,27.1690,-82.9260,80.73,11111222 
COMPS,ioos:station:USF.COMPS:C10:1,2019-09-10T06:35:00,27.1690,-82.9260,79.56,11111222 
COMPS,ioos:station:USF.COMPS:C10:1,2019-09-10T07:35:00,27.1690,-82.9260,82.12,11111222 
COMPS,ioos:station:USF.COMPS:C10:1,2019-09-10T08:35:00,27.1690,-82.9260,78.55,11111222 
COMPS,ioos:station:USF.COMPS:C10:1,2019-09-10T09:35:00,27.1690,-82.9260,84.77,11111222 
COMPS,ioos:station:USF.COMPS:C10:1,2019-09-10T10:35:00,27.1690,-82.9260,86.09,11111222 
COMPS,ioos:station:USF.COMPS:C10:1,2019-09-10T13:35:00,27.1690,-82.9260,84.74,11111222 
COMPS,ioos:station:USF.COMPS:C10:1,2019-09-10T14:35:00,27.1690,-82.9260,85.84,11111222 
COMPS,ioos:station:USF.COMPS:C10:1,2019-09-10T17:35:00,27.1690,-82.9260,72.9,11111222 
COMPS,ioos:station:USF.COMPS:C10:1,2019-09-10T18:35:00,27.1690,-82.9260,67.66,11111222 
COMPS,ioos:station:USF.COMPS:C10:1,2019-09-10T19:35:00,27.1690,-82.9260,60.51,11111222 
COMPS,ioos:station:USF.COMPS:C10:1,2019-09-10T21:35:00,27.1690,-82.9260,68.02,11111222 
COMPS,ioos:station:USF.COMPS:C10:1,2019-09-10T22:35:00,27.1690,-82.9260,66.92,11111222 
COMPS,ioos:station:USF.COMPS:C10:1,2019-09-10T23:35:00,27.1690,-82.9260,64.77,11111222 
COMPS,ioos:station:USF.COMPS:C10:1,2019-09-11T01:35:00,27.1690,-82.9260,68.2,11111222 
COMPS,ioos:station:USF.COMPS:C10:1,2019-09-11T03:35:00,27.1690,-82.9260,76.66,11111222 
COMPS,ioos:station:USF.COMPS:C10:1,2019-09-11T05:35:00,27.1690,-82.9260,81.34,11111222 
COMPS,ioos:station:USF.COMPS:C10:1,2019-09-11T06:35:00,27.1690,-82.9260,81.12,11111222 
COMPS,ioos:station:USF.COMPS:C10:1,2019-09-11T08:35:00,27.1690,-82.9260,82.87,11111222 
COMPS,ioos:station:USF.COMPS:C10:1,2019-09-11T10:35:00,27.1690,-82.9260,82.13,11111222 
COMPS,ioos:station:USF.COMPS:C10:1,2019-09-11T11:35:00,27.1690,-82.9260,82.55,11111222 
COMPS,ioos:station:USF.COMPS:C10:1,2019-09-11T14:35:00,27.1690,-82.9260,81.78,11111222 
COMPS,ioos:station:USF.COMPS:C10:1,2019-09-11T16:35:00,27.1690,-82.9260,73.33,11111222 
COMPS,ioos:station:USF.COMPS:C10:1,2019-09-11T17:35:00,27.1690,-82.9260,72.07,11111222 
COMPS,ioos:station:USF.COMPS:C10:1,2019-09-11T18:35:00,27.1690,-82.9260,69.26,11111222 
COMPS,ioos:station:USF.COMPS:C10:1,2019-09-12T02:35:00,27.1690,-82.9260,71.87,11111222 
COMPS,ioos:station:USF.COMPS:C10:1,2019-09-12T03:35:00,27.1690,-82.9260,73.39,11111222 
COMPS,ioos:station:USF.COMPS:C10:1,2019-09-12T13:35:00,27.1690,-82.9260,83.75,11111222 
COMPS,ioos:station:USF.COMPS:C10:1,2019-09-13T19:35:00,27.1690,-82.9260,82.79,11111222 
COMPS,ioos:station:USF.COMPS:C10:1,2019-09-14T01:35:00,27.1690,-82.9260,77.76,11111222 
COMPS,ioos:station:USF.COMPS:C10:1,2019-09-14T13:35:00,27.1690,-82.9260,86.15,11111222 
COMPS,ioos:station:USF.COMPS:C10:1,2019-09-14T15:35:00,27.1690,-82.9260,82.09,11111222 
COMPS,ioos:station:USF.COMPS:C10:1,2019-09-14T16:35:00,27.1690,-82.9260,76.97,11111222 
COMPS,ioos:station:USF.COMPS:C10:1,2019-09-14T17:35:00,27.1690,-82.9260,75.3,11111222 
COMPS,ioos:station:USF.COMPS:C10:1,2019-09-14T19:35:00,27.1690,-82.9260,74.42,11111222 
COMPS,ioos:station:USF.COMPS:C10:1,2019-09-14T20:35:00,27.1690,-82.9260,89.67,11111222 
COMPS,ioos:station:USF.COMPS:C10:1,2019-09-14T22:35:00,27.1690,-82.9260,82.24,11111222 
COMPS,ioos:station:USF.COMPS:C10:1,2019-09-14T23:35:00,27.1690,-82.9260,81.05,11111222 
COMPS,ioos:station:USF.COMPS:C10:1,2019-09-15T00:35:00,27.1690,-82.9260,80.92,11111222 
COMPS,ioos:station:USF.COMPS:C10:1,2019-09-15T02:35:00,27.1690,-82.9260,81.31,11111222 
COMPS,ioos:station:USF.COMPS:C10:1,2019-09-15T04:35:00,27.1690,-82.9260,83.45,11111222 
COMPS,ioos:station:USF.COMPS:C10:1,2019-09-15T05:35:00,27.1690,-82.9260,85.92,11111222 
COMPS,ioos:station:USF.COMPS:C10:1,2019-09-15T06:35:00,27.1690,-82.9260,85.93,11111222 
COMPS,ioos:station:USF.COMPS:C10:1,2019-09-15T07:35:00,27.1690,-82.9260,87.1,11111222 
COMPS,ioos:station:USF.COMPS:C10:1,2019-09-15T08:35:00,27.1690,-82.9260,87.54,11111222 
COMPS,ioos:station:USF.COMPS:C10:1,2019-09-15T11:35:00,27.1690,-82.9260,88.37,11111222 
COMPS,ioos:station:USF.COMPS:C10:1,2019-09-15T13:35:00,27.1690,-82.9260,86.28,11111222 
COMPS,ioos:station:USF.COMPS:C10:1,2019-09-15T14:35:00,27.1690,-82.9260,87.03,11111222 
COMPS,ioos:station:USF.COMPS:C10:1,2019-09-15T15:35:00,27.1690,-82.9260,84.86,11111222 
COMPS,ioos:station:USF.COMPS:C10:1,2019-09-15T16:35:00,27.1690,-82.9260,83.68,11111222 
COMPS,ioos:station:USF.COMPS:C10:1,2019-09-15T17:35:00,27.1690,-82.9260,82.84,11111222 
COMPS,ioos:station:USF.COMPS:C10:1,2019-09-15T18:35:00,27.1690,-82.9260,78.36,11111222 
COMPS,ioos:station:USF.COMPS:C10:1,2019-09-15T19:35:00,27.1690,-82.9260,77.69,11111222 
COMPS,ioos:station:USF.COMPS:C10:1,2019-09-15T20:35:00,27.1690,-82.9260,78.23,11111222 
COMPS,ioos:station:USF.COMPS:C10:1,2019-09-15T21:35:00,27.1690,-82.9260,78.05,11111222 
COMPS,ioos:station:USF.COMPS:C10:1,2019-09-15T22:35:00,27.1690,-82.9260,76.9,11111222 
COMPS,ioos:station:USF.COMPS:C10:1,2019-09-15T23:35:00,27.1690,-82.9260,79.32,11111222 
COMPS,ioos:station:USF.COMPS:C10:1,2019-09-16T00:35:00,27.1690,-82.9260,81.33,11111222 
COMPS,ioos:station:USF.COMPS:C10:1,2019-09-16T01:35:00,27.1690,-82.9260,74.12,11111222 
COMPS,ioos:station:USF.COMPS:C10:1,2019-09-16T02:35:00,27.1690,-82.9260,80.92,11111222 
COMPS,ioos:station:USF.COMPS:C10:1,2019-09-16T03:35:00,27.1690,-82.9260,84.12,11111222 
COMPS,ioos:station:USF.COMPS:C10:1,2019-09-16T04:35:00,27.1690,-82.9260,81.9,11111222 
COMPS,ioos:station:USF.COMPS:C10:1,2019-09-16T05:35:00,27.1690,-82.9260,79.55,11111222 
COMPS,ioos:station:USF.COMPS:C10:1,2019-09-16T06:35:00,27.1690,-82.9260,79.26,11111222 
COMPS,ioos:station:USF.COMPS:C10:1,2019-09-16T07:35:00,27.1690,-82.9260,81.41,11111222 
COMPS,ioos:station:USF.COMPS:C10:1,2019-09-16T08:35:00,27.1690,-82.9260,83.42,11111222 
COMPS,ioos:station:USF.COMPS:C10:1,2019-09-16T09:35:00,27.1690,-82.9260,82.39,11111222 
COMPS,ioos:station:USF.COMPS:C10:1,2019-09-16T10:35:00,27.1690,-82.9260,83.81,11111222 
COMPS,ioos:station:USF.COMPS:C10:1,2019-09-16T11:35:00,27.1690,-82.9260,83.02,11111222 
COMPS,ioos:station:USF.COMPS:C10:1,2019-09-16T12:35:00,27.1690,-82.9260,81.95,11111222 
COMPS,ioos:station:USF.COMPS:C10:1,2019-09-16T13:35:00,27.1690,-82.9260,82.0,11111222 
COMPS,ioos:station:USF.COMPS:C10:1,2019-09-16T14:35:00,27.1690,-82.9260,82.51,11111222 
COMPS,ioos:station:USF.COMPS:C10:1,2019-09-16T15:35:00,27.1690,-82.9260,79.77,11111222 
COMPS,ioos:station:USF.COMPS:C10:1,2019-09-16T16:35:00,27.1690,-82.9260,80.53,11111222 
COMPS,ioos:station:USF.COMPS:C10:1,2019-09-16T17:35:00,27.1690,-82.9260,80.08,11111222 
COMPS,ioos:station:USF.COMPS:C10:1,2019-09-16T18:35:00,27.1690,-82.9260,80.01,11111222 
COMPS,ioos:station:USF.COMPS:C10:1,2019-09-16T19:35:00,27.1690,-82.9260,80.07,11111222 
COMPS,ioos:station:USF.COMPS:C10:1,2019-09-16T20:35:00,27.1690,-82.9260,79.11,11111222 
COMPS,ioos:station:USF.COMPS:C10:1,2019-09-16T21:35:00,27.1690,-82.9260,79.89,11111222 
COMPS,ioos:station:USF.COMPS:C10:1,2019-09-16T22:35:00,27.1690,-82.9260,79.89,11111222 
COMPS,ioos:station:USF.COMPS:C10:1,2019-09-16T23:35:00,27.1690,-82.9260,80.47,11111222 
COMPS,ioos:station:USF.COMPS:C10:1,2019-09-17T00:35:00,27.1690,-82.9260,79.87,11111222 
COMPS,ioos:station:USF.COMPS:C10:1,2019-09-17T01:35:00,27.1690,-82.9260,80.14,11111222 
COMPS,ioos:station:USF.COMPS:C10:1,2019-09-17T02:35:00,27.1690,-82.9260,80.34,11111222 
COMPS,ioos:station:USF.COMPS:C10:1,2019-09-17T03:35:00,27.1690,-82.9260,80.41,11111222 
COMPS,ioos:station:USF.COMPS:C10:1,2019-09-17T04:35:00,27.1690,-82.9260,80.31,11111222 
COMPS,ioos:station:USF.COMPS:C10:1,2019-09-17T05:35:00,27.1690,-82.9260,80.73,11111222 
COMPS,ioos:station:USF.COMPS:C10:1,2019-09-17T06:35:00,27.1690,-82.9260,81.24,11111222 
COMPS,ioos:station:USF.COMPS:C10:1,2019-09-17T09:35:00,27.1690,-82.9260,79.92,11111222 